Portada
METAR-TAF:

METAR-TAF

Aeroports :

Tòquio Heliport, Japó

latitud: 35-38N, longitud: 139-51E, altitud: 5 m

Observació

L'informe es va fer fa 1 hora i 5 minuts, a les 02:00 UTC
Vent 5 kt del Nord/Nord-Est, variant entre Nord/Nord-Oest i Est
Temperatura 8°C
Humitat 42%
Pressió 1027 hPa
Visibilitat 10 km o més
Escasses núvols a una alçada de 3000 ft
Cel ennuvolat a una alçada de 7000 ft

METAR: RJTI 130200Z 02005KT 340V100 9999 FEW030 BKN070 08/M04 Q1027

Hora: 12:05 (03:05 UTC)


TAF: manca

Observacions i pronòstics meteorològics de més de 4000 aeroports (METAR i TAF).

Les estacions disponibles són els punts grocs i vermells al mapa.

Posi el ratolí al punt desitjat per veure el nom de l'estació.

Feu clic per veure les observacions i els pronòstics meteorològics.

Per canviar el mapa: feu clic els botons verds amb una creu de color negre per apropar; al botó verd amb un guió per allunyar la imatge; o en les fletxes verdes per a mapes adjacents.


METAR-TAF: